This demonstration page uses our WeatherBlox Daily Observations layout. Learn more.

Left ArrowRight Arrow

38.88101, -77.10428

Hourly Observations for July 1, 2021

Temp ( °F °C ) Dew Point ( °F °C ) Humidity (%) Winds ( mph kmh ) Pressure ( in mb ) Visibility ( mi km ) Precip ( " mm )
12:52 am 00:52 Partly Cloudy 77 25 71 21.7 82 82 N N/A 29.98 1015 10 16 N/A
1:52 am 01:52 Partly Cloudy 76 24.4 71 21.7 85 85 N 3 6 29.96 1015 10 16 N/A
2:52 am 02:52 Mostly Cloudy 77 25 70 21.1 79 79 NNW 3 6 29.96 1014 10 16 N/A
3:52 am 03:52 Mostly Cloudy 76 24.4 69 20.6 79 79 WSW 3 6 29.94 1014 10 16 N/A
4:52 am 04:52 Mostly Cloudy 78 25.6 69 20.6 74 74 SSW 3 6 29.94 1014 10 16 N/A
5:52 am 05:52 Mostly Cloudy 76 24.4 70 21.1 82 82 SW 5 7 29.93 1014 10 16 N/A
6:52 am 06:52 Mostly Cloudy 78 25.6 70 21.1 76 76 SW 5 7 29.94 1014 10 16 N/A
7:52 am 07:52 Mostly Cloudy 80 26.7 70 21.1 71 71 SSW 3 6 29.93 1014 10 16 N/A
8:52 am 08:52 Mostly Cloudy 82 27.8 71 21.7 69 69 S 8 13 29.92 1013 10 16 N/A
9:52 am 09:52 Mostly Cloudy 83 28.3 69 20.6 63 63 S 7 11 29.91 1013 10 16 N/A
10:52 am 10:52 Cloudy 86 30 70 21.1 59 59 SSE 7 11 29.91 1013 10 16 N/A
11:52 am 11:52 Cloudy 87 30.6 71 21.7 59 59 S 9 15 29.88 1012 10 16 N/A
12:52 pm 12:52 Cloudy 88 31.1 72 22.2 59 59 S 9 15 29.87 1011 10 16 N/A
1:40 pm 13:40 Partly Cloudy with Nearby Thunderstorms 90 32.2 70 21.1 52 52 S 10 17 29.83 1010 10 16 N/A
1:52 pm 13:52 Mostly Cloudy with Nearby Thunderstorms 90 32.2 71 21.7 54 54 S 5 7 29.82 1010 10 16 N/A
2:25 pm 14:25 Mostly Cloudy 87 30.6 68 20 53 53 NNW 10 17 29.80 1009 10 16 N/A
2:52 pm 14:52 Cloudy with Light Rain 85 29.4 68 20 57 57 N 7 11 29.81 1009 10 16 0.00 0.00
3:06 pm 15:06 Cloudy with Nearby Thunderstorms 83 28.3 69 20.6 63 63 WNW 22 35 29.87 1011 10 16 0.00 0.00
3:08 pm 15:08 Very Windy with Storms Likely 82 27.8 69 20.6 65 65 W 40 65 29.89 1012 2 3 0.00 0.00
3:13 pm 15:13 Cloudy with Strong Thunderstorms 73 22.8 68 20 84 84 WNW 25 41 29.89 1012 2 2 0.00 0.00
3:16 pm 15:16 Cloudy with Strong Thunderstorms 72 22.2 68 20 87 87 W 21 33 29.90 1012 1 1 0.12 3.05
3:20 pm 15:20 Cloudy with Strong Thunderstorms 71 21.7 67 19.4 87 87 W 9 15 29.89 1012 1 1 0.24 6.10
3:27 pm 15:27 Cloudy with Strong Thunderstorms 71 21.7 67 19.4 87 87 NW 9 15 29.86 1011 1 2 0.39 9.91
3:29 pm 15:29 Cloudy with Strong Thunderstorms 71 21.7 66 18.9 84 84 NNW 8 13 29.85 1011 2 2 0.40 10.16
3:31 pm 15:31 Cloudy with Strong Thunderstorms 71 21.7 66 18.9 84 84 VRB 6 9 29.85 1011 3 5 0.42 10.67
3:33 pm 15:33 Cloudy with Thunderstorms 71 21.7 66 18.9 84 84 WNW 8 13 29.85 1011 5 8 0.42 10.67
3:39 pm 15:39 Mostly Cloudy with Thunderstorms 72 22.2 67 19.4 84 84 VRB 5 7 29.85 1011 10 16 0.42 10.67
3:47 pm 15:47 Mostly Cloudy with Nearby Thunderstorms 73 23 68 20 83 83 VRB 3 6 29.85 1011 10 16 0.43 10.92
3:52 pm 15:52 Mostly Cloudy with Nearby Thunderstorms 74 23.3 68 20 82 82 SE 3 6 29.84 1011 10 16 0.43 10.92
4:06 pm 16:06 Mostly Cloudy 74 23.3 69 20.6 85 85 NE 10 17 29.84 1010 10 16 0.00 0.00
4:52 pm 16:52 Mostly Cloudy 77 25 70 21.1 79 79 NNE 5 7 29.82 1010 10 16 0.00 0.00
5:52 pm 17:52 Mostly Cloudy 77 25 71 21.7 82 82 S 6 9 29.82 1010 10 16 N/A
6:52 pm 18:52 Mostly Cloudy 79 26.1 71 21.7 77 77 S 9 15 29.83 1010 10 16 N/A
7:52 pm 19:52 Mostly Cloudy 79 26.1 71 21.7 77 77 N N/A 29.80 1009 10 16 N/A
8:52 pm 20:52 Mostly Cloudy 79 26.1 71 21.7 77 77 S 7 11 29.80 1009 10 16 N/A
8:57 pm 20:57 Mostly Cloudy with Thunderstorms 78 25.6 71 21.7 79 79 S 7 11 29.79 1009 10 16 N/A
9:07 pm 21:07 Mostly Cloudy with Strong Thunderstorms 75 23.9 69 20.6 82 82 WNW 38 61 29.84 1010 1 2 0.00 0.00
9:08 pm 21:08 Mostly Cloudy with Thunderstorms 73 22.8 68 20 84 84 NW 36 57 29.84 1010 1 2 0.00 0.00
9:12 pm 21:12 Cloudy with Strong Thunderstorms 70 21.1 66 18.9 87 87 WNW 18 30 29.83 1010 1 1 0.25 6.35
9:17 pm 21:17 Cloudy with Strong Thunderstorms 70 21.1 67 19.4 90 90 W 14 22 29.84 1010 1 2 0.49 12.45
9:20 pm 21:20 Cloudy with Thunderstorms 70 21.1 67 19.4 90 90 WSW 15 24 29.85 1011 3 4 0.50 12.70
9:22 pm 21:22 Cloudy with Thunderstorms 71 21.7 67 19.4 87 87 WSW 10 17 29.85 1011 5 8 0.50 12.70
9:29 pm 21:29 Cloudy with Strong Thunderstorms 71 21.7 68 20 90 90 W 9 15 29.84 1010 2 3 0.61 15.49
9:31 pm 21:31 Cloudy with Strong Thunderstorms 71 21.7 68 20 90 90 WNW 8 13 29.84 1010 2 2 0.66 16.76
9:33 pm 21:33 Cloudy with Strong Thunderstorms 71 21.7 68 20 90 90 NW 9 15 29.84 1010 2 2 0.71 18.03
9:37 pm 21:37 Cloudy with Strong Thunderstorms 71 21.7 68 20 90 90 NW 9 15 29.83 1010 2 3 0.77 19.56
9:40 pm 21:40 Cloudy with Thunderstorms 71 21.7 68 20 90 90 VRB 7 11 29.83 1010 4 6 0.78 19.81
9:46 pm 21:46 Cloudy with Light Rain 72 22 68 20 88 88 WSW 6 9 29.84 1010 10 16 0.78 19.81
9:52 pm 21:52 Cloudy 72 22.2 68 20 87 87 SSW 6 9 29.83 1010 10 16 0.78 19.81
10:21 pm 22:21 Cloudy with Light Rain 72 22.2 68 20 87 87 S 8 13 29.85 1011 10 16 0.01 0.25
10:52 pm 22:52 Cloudy with Light Rain 72 22.2 68 20 87 87 SSW 3 6 29.84 1010 10 16 0.05 1.27
11:52 pm 23:52 Cloudy with Light Rain 71 21.7 68 20 90 90 S 5 7 29.83 1010 10 16 0.00 0.00

Powered by AerisWeather